[[{"header":{"parameterUnit":"m.s-1","parameterCategory":1,"la1":30.2991,"la2":30.254,"lo1":-89.0895,"lo2":-89.0444,"dy":0.0017,"dx":0.0017,"nx":28,"ny":28,"refTime":"2025-01-27T03:00:00:Z","depth":0,"parameterNumber":2,"parameterNumberName":"U-component_of_WINDS"},"data":[0,0,0,0,0,0,0,0,0,0,0,0,0,0,0,0,0,0,0,0,0,0,0,0,0,0,0,0,0,0,0,0,0,0,0,0,0,0,0,0,0,0,0,0,0,0,0,0,0,0,0,0,0,0,0,0,0,0,-1.9706,-1.9706,0,-1.967,-1.9669,-1.9669,-1.9598,-1.9597,-1.9596,-1.9594,-1.9558,-1.9559,-1.9559,0,0,0,0,0,0,0,0,0,0,0,0,0,-1.9717,-1.9717,-1.9706,-1.9706,-1.9705,-1.967,-1.9669,-1.9669,-1.9599,-1.9597,-1.9595,-1.9594,-1.9558,-1.9559,-1.9559,0,0,0,0,0,0,0,0,0,0,0,0,0,-1.97,-1.9717,-1.9706,-1.9666,-1.9662,-1.967,-1.9669,-1.9669,-1.9599,-1.9597,-1.9595,-1.9593,-1.9558,-1.9559,-1.9559,-1.9604,0,0,-1.9561,-1.9561,0,0,0,0,0,0,0,0,-1.9701,-1.9699,-1.9672,-1.9669,-1.9664,-1.9636,-1.966,-1.9647,-1.9599,-1.9623,-1.9594,-1.9592,-1.9586,-1.9584,-1.9582,-1.9602,-1.9601,-1.9561,-1.9561,-1.9561,-1.9561,0,0,0,0,0,0,0,-1.9702,-1.9701,-1.9692,-1.9672,-1.9667,-1.965,-1.9646,-1.9657,-1.9617,-1.9621,-1.9615,-1.9612,-1.9584,-1.9582,-1.9581,-1.96,-1.9561,-1.9561,-1.9562,-1.9562,-1.9655,-1.9657,0,0,0,0,0,0,-1.9709,-1.9702,-1.9693,-1.9691,-1.9678,-1.9652,-1.9646,-1.9648,-1.9616,-1.961,-1.9614,-1.9609,-1.9582,-1.958,-1.9579,-1.9628,-1.9561,-1.9562,-1.9562,-1.9653,-1.9655,-1.9658,0,0,0,0,0,0,-1.971,-1.9709,-1.9694,-1.9695,-1.9692,-1.9654,-1.9656,-1.9648,-1.9646,-1.9611,-1.9604,-1.9619,-1.958,-1.9578,-1.9598,-1.9626,-1.9562,-1.9563,-1.965,-1.9654,-1.9657,-1.9728,0,0,0,0,0,0,-1.971,-1.9709,-1.9725,-1.9696,-1.9692,-1.9714,-1.9657,-1.9649,-1.9647,-1.964,-1.9614,-1.9608,-1.9578,-1.9598,-1.9599,-1.9626,-1.9563,-1.9647,-1.9652,-1.9655,-1.9723,-1.9733,-1.9742,0,0,0,0,0,-1.9711,-1.9748,-1.9727,-1.9726,-1.9711,-1.9715,-1.9713,-1.9678,-1.9649,-1.9665,-1.9643,-1.9609,-1.9624,-1.96,-1.9601,-1.9628,-1.9645,-1.965,-1.9655,-1.9718,-1.9731,-1.9742,0,0,0,0,0,0,-1.9782,-1.9743,-1.9719,-1.9747,-1.9735,-1.9703,-1.9722,-1.9693,-1.9688,-1.9682,-1.9639,-1.9634,-1.9659,-1.9646,-1.9621,-1.967,-1.9629,-1.9634,-1.9677,-1.9689,-1.9698,-1.97,-1.9563,0,0,0,0,0,-1.9801,-1.9807,-1.9773,-1.9801,-1.9796,-1.9761,-1.9761,-1.9735,-1.9721,-1.9715,-1.9694,-1.9682,-1.9684,-1.9686,-1.9686,-1.9721,-1.9714,-1.9741,-1.975,-1.9758,-1.9763,-1.9779,-1.979,-1.9674,-1.9674,-1.9674,0,0,-1.984,-1.982,-1.9826,-1.9815,-1.9802,-1.9809,-1.9757,-1.9767,-1.9772,-1.9717,-1.9733,-1.9718,-1.9702,-1.973,-1.9741,-1.9719,-1.9794,-1.9765,-1.9771,-1.9771,-1.9786,-1.9797,-1.9806,-1.9677,-1.9676,-1.9676,0,0,-1.9914,-1.99,-1.9921,-1.991,-1.9891,-1.9868,-1.9873,-1.9846,-1.9833,-1.985,-1.9808,-1.9814,-1.9819,-1.9808,-1.9804,-1.9876,-1.9843,-1.9877,-1.9926,-1.9943,-1.9952,-1.996,-1.9984,-1.9994,-1.9882,-1.9882,-1.9882,0,-1.9965,-1.9974,-1.9936,-1.9949,-1.9945,-1.9896,-1.9917,-1.9908,-1.9891,-1.989,-1.9866,-1.987,-1.9856,-1.988,-1.9897,-1.9896,-1.99,-1.9879,-1.9954,-1.9962,-1.9968,-1.9991,-2.0,-1.9886,-1.9886,-1.9885,-1.9885,0,-2.0037,-2.0044,-2.0063,-2.0047,-2.0046,-2.0063,-2.0028,-2.0032,-2.0007,-1.9986,-2.0003,-1.9984,-1.9979,-1.9983,-1.9959,-2.0004,-1.9991,-1.9962,-1.9919,-1.9984,-2.0004,-2.0013,-1.9892,-1.9891,-1.9889,-1.9888,0,0,-2.0152,-2.0116,-2.0124,-2.0115,-2.0092,-2.0097,-2.0112,-2.0107,-2.011,-2.0101,-2.0111,-2.0117,-2.0089,-2.0084,-2.0059,-2.0074,-2.013,-2.0043,-2.0042,-2.0058,-2.0177,-2.0197,-2.0208,-2.011,-2.0112,-2.0113,-2.0178,0,-2.022,-2.0242,-2.021,-2.024,-2.0245,-2.02,-2.0213,-2.0201,-2.0182,-2.0185,-2.0164,-2.0168,-2.0132,-2.0129,-2.0142,-2.0121,-2.0153,-2.0116,-2.0119,-2.012,-2.0122,-2.0219,-2.024,-2.0302,-2.0186,-2.0187,-2.0188,0,-2.0301,-2.0295,-2.0325,-2.03,-2.0301,-2.0313,-2.0305,-2.0309,-2.0294,-2.0279,-2.0274,-2.0244,-2.0257,-2.0218,-2.0236,-2.0211,-2.0211,-2.0201,-2.0203,-2.0199,-2.0156,-2.0216,-2.0321,-2.0329,-2.02,-2.0199,-2.0198,0,-2.038,-2.038,-2.0397,-2.0392,-2.0363,-2.0373,-2.0362,-2.0345,-2.0343,-2.0337,-2.0336,-2.0332,-2.0329,-2.0327,-2.0296,-2.0271,-2.0317,-2.0276,-2.0305,-2.0306,-2.0314,-2.0314,-2.0418,-2.0319,-2.0319,-2.0318,-2.0318,0,-2.0457,-2.0477,-2.0432,-2.0443,-2.0464,-2.0427,-2.0449,-2.0434,-2.0419,-2.0426,-2.0388,-2.0395,-2.0356,-2.0359,-2.0336,-2.0353,-2.0353,-2.0341,-2.0334,-2.0343,-2.0344,-2.034,-2.0334,-2.0321,-2.032,-2.032,-2.0319,0,-2.0547,-2.0518,-2.0534,-2.0506,-2.05,-2.0517,-2.0492,-2.0501,-2.0481,-2.0491,-2.0491,-2.0459,-2.0461,-2.0431,-2.0428,-2.0412,-2.0439,-2.0426,-2.0444,-2.0439,-2.0468,-2.0465,-2.0572,-2.0583,-2.0479,-2.048,-2.0481,0,-2.0597,-2.0611,-2.0585,-2.0587,-2.0577,-2.0581,-2.0579,-2.0544,-2.0544,-2.0529,-2.0539,-2.0539,-2.0535,-2.0541,-2.0518,-2.0515,-2.05,-2.0538,-2.0499,-2.0507,-2.0498,-2.0496,-2.0497,-2.0545,-2.0546,-2.0547,-2.0548,0,-2.0688,-2.0673,-2.0672,-2.0666,-2.0665,-2.0659,-2.0651,-2.0654,-2.0616,-2.0619,-2.062,-2.0618,-2.0614,-2.0613,-2.0606,-2.0595,-2.0565,-2.0561,-2.0567,-2.0575,-2.0583,-2.0577,-2.0463,-2.0558,-2.0557,-2.0556,-2.0556,-2.0555,-2.0758,-2.0768,-2.0751,-2.0751,-2.0741,-2.0734,-2.0741,-2.0721,-2.0722,-2.0715,-2.0695,-2.07,-2.0685,-2.0673,-2.0664,-2.0667,-2.0649,-2.0658,-2.066,-2.0662,-2.0667,-2.0585,-2.0667,-2.0666,-2.0666,-2.0666,-2.0665,0,-2.0845,-2.0832,-2.0833,-2.0821,-2.0822,-2.0795,-2.0784,-2.0786,-2.079,-2.0779,-2.0777,-2.0778,-2.0778,-2.0755,-2.0751,-2.0758,-2.0745,-2.0758,-2.0756,-2.0754,-2.0685,-2.0679,-2.0769,-2.0769,-2.0769,-2.0769,-2.0769,-2.0769,-2.089,-2.0905,-2.0888,-2.0899,-2.0885,-2.0889,-2.0885,-2.0879,-2.0869,-2.0873,-2.0872,-2.0857,-2.0841,-2.0836,-2.0834,-2.0827,-2.0827,-2.0845,-2.0834,-2.0769,-2.0759,-2.0749,-2.0743,-2.0846,-2.0846,-2.0902,-2.0902,-2.0903]},{"header":{"parameterUnit":"m.s-1","parameterCategory":1,"la1":30.2991,"la2":30.254,"lo1":-89.0895,"lo2":-89.0444,"dy":0.0017,"dx":0.0017,"nx":28,"ny":28,"refTime":"2025-01-27T03:00:00:Z","depth":0,"parameterNumber":3,"parameterNumberName":"V-component_of_WINDS"},"data":[0,0,0,0,0,0,0,0,0,0,0,0,0,0,0,0,0,0,0,0,0,0,0,0,0,0,0,0,0,0,0,0,0,0,0,0,0,0,0,0,0,0,0,0,0,0,0,0,0,0,0,0,0,0,0,0,0,0,-0.1456,-0.1456,0,-0.1445,-0.1445,-0.1445,-0.1409,-0.1408,-0.1407,-0.1406,-0.1395,-0.1396,-0.1396,0,0,0,0,0,0,0,0,0,0,0,0,0,-0.1442,-0.1443,-0.1456,-0.1456,-0.1456,-0.1445,-0.1445,-0.1445,-0.1409,-0.1408,-0.1407,-0.1406,-0.1395,-0.1396,-0.1396,0,0,0,0,0,0,0,0,0,0,0,0,0,-0.1442,-0.1443,-0.1456,-0.1436,-0.1434,-0.1445,-0.1445,-0.1445,-0.1409,-0.1408,-0.1406,-0.1405,-0.1395,-0.1396,-0.1397,-0.1426,0,0,-0.1399,-0.1399,0,0,0,0,0,0,0,0,-0.1442,-0.1442,-0.1439,-0.1438,-0.1436,-0.1427,-0.1436,-0.1439,-0.1409,-0.1419,-0.1406,-0.1405,-0.1407,-0.1407,-0.1407,-0.1425,-0.1425,-0.1399,-0.1399,-0.14,-0.14,0,0,0,0,0,0,0,-0.1442,-0.1442,-0.1452,-0.1439,-0.1437,-0.1427,-0.1426,-0.1437,-0.142,-0.1418,-0.1415,-0.1414,-0.1406,-0.1407,-0.1407,-0.1425,-0.1399,-0.1399,-0.14,-0.14,-0.1462,-0.1464,0,0,0,0,0,0,-0.1445,-0.1443,-0.1452,-0.1451,-0.1436,-0.1428,-0.1427,-0.1431,-0.142,-0.1417,-0.1415,-0.1413,-0.1406,-0.1406,-0.1406,-0.1437,-0.14,-0.14,-0.1401,-0.1461,-0.1463,-0.1464,0,0,0,0,0,0,-0.1445,-0.1446,-0.1453,-0.1446,-0.1446,-0.143,-0.1435,-0.1431,-0.1432,-0.1418,-0.1415,-0.142,-0.1405,-0.1405,-0.142,-0.1437,-0.1401,-0.1401,-0.146,-0.1462,-0.1463,-0.1502,0,0,0,0,0,0,-0.1444,-0.1446,-0.1458,-0.1447,-0.1447,-0.1468,-0.1436,-0.1432,-0.1434,-0.143,-0.1421,-0.1418,-0.1404,-0.1419,-0.1421,-0.1437,-0.1402,-0.1458,-0.1461,-0.1463,-0.1499,-0.1504,-0.1509,0,0,0,0,0,-0.1444,-0.147,-0.1459,-0.146,-0.1461,-0.1469,-0.1469,-0.1452,-0.1435,-0.1446,-0.1436,-0.1419,-0.1435,-0.1421,-0.1423,-0.1439,-0.1457,-0.146,-0.1463,-0.1496,-0.1503,-0.1509,0,0,0,0,0,0,-0.1484,-0.1468,-0.1456,-0.1479,-0.1475,-0.1463,-0.1476,-0.146,-0.1461,-0.1458,-0.1437,-0.1435,-0.1453,-0.1448,-0.1433,-0.1465,-0.1443,-0.1446,-0.1468,-0.1474,-0.148,-0.148,-0.1402,0,0,0,0,0,-0.1496,-0.1504,-0.1489,-0.1511,-0.1509,-0.1493,-0.1496,-0.1483,-0.1478,-0.1477,-0.1468,-0.1464,-0.1468,-0.1471,-0.1474,-0.1498,-0.1494,-0.1509,-0.1515,-0.1519,-0.1522,-0.1531,-0.1537,-0.1473,-0.1473,-0.1473,0,0,-0.152,-0.1512,-0.1518,-0.1518,-0.1514,-0.1521,-0.1492,-0.1502,-0.1507,-0.1478,-0.1491,-0.1485,-0.1479,-0.1497,-0.1505,-0.1494,-0.1539,-0.1523,-0.1526,-0.1527,-0.1534,-0.1541,-0.1546,-0.1475,-0.1474,-0.1474,0,0,-0.1567,-0.1563,-0.1579,-0.1574,-0.1568,-0.1556,-0.156,-0.1549,-0.1543,-0.1556,-0.1533,-0.1539,-0.1547,-0.1542,-0.1541,-0.1583,-0.1566,-0.1584,-0.1612,-0.1621,-0.1626,-0.163,-0.1643,-0.1648,-0.1587,-0.1588,-0.1588,0,-0.1597,-0.1608,-0.1589,-0.1599,-0.1599,-0.1572,-0.1587,-0.1584,-0.1579,-0.1579,-0.1566,-0.1573,-0.1567,-0.1583,-0.1593,-0.1594,-0.1596,-0.1585,-0.1627,-0.1631,-0.1635,-0.1647,-0.1652,-0.159,-0.1589,-0.1589,-0.1589,0,-0.1644,-0.1652,-0.1666,-0.166,-0.1661,-0.1674,-0.1656,-0.1659,-0.1646,-0.1635,-0.1647,-0.1638,-0.1638,-0.1641,-0.1628,-0.1654,-0.1647,-0.1631,-0.1608,-0.1643,-0.1654,-0.1659,-0.1593,-0.1592,-0.1591,-0.1591,0,0,-0.1718,-0.17,-0.1705,-0.17,-0.169,-0.1695,-0.1705,-0.1704,-0.1706,-0.1703,-0.171,-0.1716,-0.17,-0.1698,-0.1685,-0.1693,-0.1723,-0.1676,-0.1675,-0.1683,-0.1748,-0.176,-0.1765,-0.1712,-0.1713,-0.1714,-0.1748,0,-0.1761,-0.1778,-0.176,-0.178,-0.1785,-0.1758,-0.1767,-0.1761,-0.1751,-0.1753,-0.1741,-0.1745,-0.1725,-0.1723,-0.173,-0.1718,-0.1736,-0.1716,-0.1717,-0.1717,-0.1718,-0.1771,-0.1784,-0.1817,-0.1753,-0.1753,-0.1754,0,-0.1814,-0.1811,-0.1832,-0.1817,-0.1818,-0.1826,-0.1822,-0.1825,-0.1816,-0.1808,-0.1805,-0.1788,-0.1796,-0.1773,-0.1782,-0.1769,-0.1768,-0.1762,-0.1763,-0.1762,-0.1737,-0.177,-0.1827,-0.1832,-0.1761,-0.176,-0.176,0,-0.1862,-0.1864,-0.1876,-0.1873,-0.1857,-0.1863,-0.1856,-0.1846,-0.1846,-0.1842,-0.1841,-0.1838,-0.1836,-0.1834,-0.1816,-0.1802,-0.1826,-0.1803,-0.1818,-0.1819,-0.1824,-0.1824,-0.1881,-0.1826,-0.1826,-0.1826,-0.1826,0,-0.1911,-0.1924,-0.1897,-0.1904,-0.1917,-0.1895,-0.1908,-0.1899,-0.189,-0.1894,-0.1871,-0.1875,-0.1851,-0.1852,-0.1838,-0.1846,-0.1846,-0.1839,-0.1834,-0.184,-0.184,-0.1838,-0.1835,-0.1827,-0.1827,-0.1827,-0.1827,0,-0.1968,-0.195,-0.196,-0.1943,-0.1939,-0.1949,-0.1934,-0.1939,-0.1926,-0.1931,-0.1931,-0.1911,-0.1911,-0.1892,-0.1889,-0.1879,-0.1892,-0.1885,-0.1895,-0.1892,-0.1907,-0.1905,-0.1964,-0.1969,-0.1913,-0.1913,-0.1914,0,-0.1999,-0.2008,-0.1991,-0.1992,-0.1986,-0.1988,-0.1986,-0.1965,-0.1964,-0.1953,-0.1959,-0.1956,-0.1953,-0.1953,-0.1938,-0.1934,-0.1925,-0.1946,-0.1925,-0.1929,-0.1923,-0.1922,-0.1922,-0.195,-0.1951,-0.1952,-0.1952,0,-0.2057,-0.2047,-0.2046,-0.2041,-0.2039,-0.2035,-0.2029,-0.203,-0.2006,-0.2006,-0.2005,-0.2002,-0.1997,-0.1994,-0.1987,-0.1979,-0.1961,-0.1959,-0.1962,-0.1967,-0.1972,-0.1967,-0.1906,-0.1958,-0.1957,-0.1957,-0.1956,-0.1956,-0.21,-0.2106,-0.2094,-0.2093,-0.2085,-0.2079,-0.2082,-0.2069,-0.2068,-0.2061,-0.2049,-0.2049,-0.2037,-0.2025,-0.2019,-0.2018,-0.2007,-0.2012,-0.2013,-0.2014,-0.2016,-0.1973,-0.2017,-0.2017,-0.2016,-0.2016,-0.2016,0,-0.2155,-0.2145,-0.2144,-0.2135,-0.2134,-0.2116,-0.2108,-0.2107,-0.2107,-0.2098,-0.2095,-0.2092,-0.2088,-0.2072,-0.2066,-0.2068,-0.2059,-0.2067,-0.2066,-0.2064,-0.2027,-0.2024,-0.2074,-0.2074,-0.2074,-0.2074,-0.2074,-0.2074,-0.2183,-0.2191,-0.2179,-0.2182,-0.2172,-0.2172,-0.2168,-0.2161,-0.2153,-0.2151,-0.2147,-0.2137,-0.2124,-0.2116,-0.2111,-0.2106,-0.2105,-0.2115,-0.2107,-0.2073,-0.2067,-0.2062,-0.2059,-0.2115,-0.2115,-0.2144,-0.2144,-0.2144]}]]